Location: Marcé
(47.5801°N, 0.3280°W)
Time: 16:16:39
(UTC+01:00)

Transit 2A - Pass Details

Date: 06 December 2021
Orbit: 591 x 967 km, 66.7° (Epoch: 21 January)

Event Time Altitude Azimuth Distance (km) Brightness Sun altitude
Rises 03:39:34 0° 282° (WNW) 3,490 - -48.3°
Reaches altitude 10° 03:43:04 10° 303° (WNW) 2,613 - -47.8°
Maximum altitude 03:46:50 16° 341° (NNW) 2,230 - -47.2°
Drops below altitude 10° 03:50:42 10° 19° (NNE) 2,701 - -46.6°
Exits shadow 03:51:19 - 23° (NNE) 2,838 9.2 -46.5°
Sets 03:54:25 0° 40° (NE) 3,664 10.1 -46.0°
